• In Schweiz
  • Länderverzeichnis
  • Für 7 Tage
  • Wassertemperatur
  • Satellitenkarten
  • Wetterkarte
  • Widgets
  • user-avatar
    Anmelden

    Stündliche Wetter Mamalaevka

    Heute, 15 August, Mittwoch

    Zeit Temperatur Niederschläge Wind Luftdruck Luftfeuchtigkeit
    00:00 +18°C° 0 mm 4 m/S 745 mmHg 81%
    01:00 +17°C° 0 mm 4 m/S 745 mmHg 82%
    02:00 +17°C° 0 mm 4 m/S 745 mmHg 84%
    03:00 +16°C° 0 mm 3 m/S 746 mmHg 85%
    04:00 +14°C° 0 mm 3 m/S 746 mmHg 87%
    05:00 +16°C° 0 mm 3 m/S 746 mmHg 84%
    06:00 +15°C° 0 mm 4 m/S 747 mmHg 81%
    07:00 +17°C° 0 mm 4 m/S 747 mmHg 78%
    08:00 +19°C° 0 mm 4 m/S 747 mmHg 70%
    09:00 +20°C° 0 mm 5 m/S 748 mmHg 61%
    10:00 +22°C° 0 mm 5 m/S 748 mmHg 53%
    11:00 +23°C° 0 mm 5 m/S 748 mmHg 49%
    12:00 +25°C° 0 mm 5 m/S 748 mmHg 45%
    13:00 +26°C° 0 mm 5 m/S 748 mmHg 40%
    14:00 +26°C° 0 mm 5 m/S 748 mmHg 40%
    15:00 +26°C° 0 mm 5 m/S 748 mmHg 40%
    16:00 +26°C° 0 mm 4 m/S 749 mmHg 39%
    17:00 +25°C° 0 mm 4 m/S 749 mmHg 43%
    18:00 +24°C° 0 mm 3 m/S 749 mmHg 48%
    19:00 +22°C° 0 mm 3 m/S 749 mmHg 52%
    20:00 +21°C° 0 mm 2 m/S 749 mmHg 56%
    21:00 +20°C° 0 mm 2 m/S 749 mmHg 59%
    22:00 +18°C° 0 mm 2 m/S 750 mmHg 63%
    23:00 +18°C° 0 mm 2 m/S 750 mmHg 65%

    Morgen, 16 August, Donnerstag

    Zeit Temperatur Niederschläge Wind Luftdruck Luftfeuchtigkeit
    00:00 +18°C° 0 mm 1 m/S 750 mmHg 67%
    01:00 +18°C° 0 mm 1 m/S 750 mmHg 69%
    02:00 +16°C° 0 mm 1 m/S 750 mmHg 70%
    03:00 +16°C° 0 mm 1 m/S 750 mmHg 71%
    04:00 +15°C° 0 mm 0 m/S 750 mmHg 73%
    05:00 +18°C° 0 mm 1 m/S 750 mmHg 70%
    06:00 +18°C° 0 mm 1 m/S 750 mmHg 67%
    07:00 +19°C° 0 mm 1 m/S 750 mmHg 64%
    08:00 +21°C° 0 mm 1 m/S 750 mmHg 58%
    09:00 +23°C° 0 mm 2 m/S 750 mmHg 52%
    10:00 +24°C° 0 mm 2 m/S 750 mmHg 45%
    11:00 +25°C° 0 mm 3 m/S 750 mmHg 42%
    12:00 +27°C° 0 mm 3 m/S 750 mmHg 39%
    13:00 +28°C° 0 mm 3 m/S 750 mmHg 36%
    14:00 +28°C° 0 mm 3 m/S 749 mmHg 35%
    15:00 +29°C° 0 mm 3 m/S 749 mmHg 34%
    16:00 +29°C° 0 mm 3 m/S 749 mmHg 33%
    17:00 +28°C° 0 mm 3 m/S 749 mmHg 36%
    18:00 +27°C° 0 mm 2 m/S 748 mmHg 39%
    19:00 +26°C° 0 mm 2 m/S 748 mmHg 42%
    20:00 +25°C° 0 mm 2 m/S 748 mmHg 43%
    21:00 +24°C° 0 mm 2 m/S 748 mmHg 43%
    22:00 +23°C° 0 mm 2 m/S 748 mmHg 43%
    23:00 +21°C° 0 mm 2 m/S 748 mmHg 43%

    übermorgen, 17 August, Freitag

    Zeit Temperatur Niederschläge Wind Luftdruck Luftfeuchtigkeit
    00:00 +21°C° 0 mm 2 m/S 748 mmHg 43%
    01:00 +21°C° 0 mm 2 m/S 748 mmHg 43%
    02:00 +20°C° 0 mm 2 m/S 747 mmHg 43%
    03:00 +20°C° 0 mm 2 m/S 747 mmHg 43%
    04:00 +20°C° 0 mm 2 m/S 747 mmHg 44%
    05:00 +20°C° 0 mm 2 m/S 747 mmHg 44%
    06:00 +21°C° 0 mm 2 m/S 747 mmHg 45%
    07:00 +21°C° 0 mm 2 m/S 747 mmHg 45%
    08:00 +24°C° 0 mm 3 m/S 747 mmHg 44%
    09:00 +26°C° 0 mm 3 m/S 747 mmHg 43%
    10:00 +27°C° 0 mm 3 m/S 747 mmHg 42%
    11:00 +27°C° 0,1 mm 3 m/S 747 mmHg 44%
    12:00 +28°C° 0,1 mm 4 m/S 747 mmHg 46%
    13:00 +28°C° 0,1 mm 4 m/S 747 mmHg 48%
    14:00 +28°C° 0,1 mm 4 m/S 746 mmHg 50%
    15:00 +27°C° 0,1 mm 4 m/S 746 mmHg 52%
    16:00 +27°C° 0,1 mm 4 m/S 746 mmHg 54%
    17:00 +26°C° 0,1 mm 4 m/S 746 mmHg 58%
    18:00 +26°C° 0,1 mm 4 m/S 746 mmHg 61%
    19:00 +25°C° 0,1 mm 3 m/S 746 mmHg 65%
    20:00 +24°C° 0 mm 3 m/S 746 mmHg 70%
    21:00 +21°C° 0 mm 4 m/S 746 mmHg 76%
    22:00 +20°C° 0 mm 4 m/S 746 mmHg 81%
    23:00 +19°C° 0,1 mm 4 m/S 746 mmHg 82%

    18 August, Samstag

    Zeit Temperatur Niederschläge Wind Luftdruck Luftfeuchtigkeit
    00:00 +19°C° 0,1 mm 4 m/S 746 mmHg 82%
    01:00 +18°C° 0,1 mm 4 m/S 746 mmHg 83%
    02:00 +18°C° 0,3 mm 4 m/S 746 mmHg 84%
    03:00 +17°C° 0,3 mm 3 m/S 746 mmHg 85%
    04:00 +16°C° 0,3 mm 3 m/S 746 mmHg 85%
    05:00 +17°C° 0,1 mm 4 m/S 746 mmHg 84%
    06:00 +17°C° 0,1 mm 4 m/S 747 mmHg 82%
    07:00 +16°C° 0,1 mm 5 m/S 747 mmHg 80%
    08:00 +17°C° 0 mm 5 m/S 747 mmHg 72%
    09:00 +20°C° 0 mm 6 m/S 747 mmHg 64%
    10:00 +21°C° 0 mm 6 m/S 747 mmHg 56%
    11:00 +22°C° 0 mm 6 m/S 747 mmHg 53%
    12:00 +23°C° 0 mm 6 m/S 747 mmHg 49%
    13:00 +24°C° 0 mm 7 m/S 747 mmHg 45%
    14:00 +24°C° 0 mm 7 m/S 746 mmHg 44%
    15:00 +24°C° 0 mm 7 m/S 746 mmHg 43%
    16:00 +24°C° 0 mm 7 m/S 746 mmHg 42%
    17:00 +22°C° 0 mm 7 m/S 746 mmHg 47%
    18:00 +21°C° 0 mm 6 m/S 747 mmHg 51%
    19:00 +20°C° 0 mm 6 m/S 747 mmHg 55%
    20:00 +19°C° 0 mm 6 m/S 747 mmHg 59%
    21:00 +16°C° 0 mm 6 m/S 747 mmHg 64%
    22:00 +15°C° 0 mm 6 m/S 747 mmHg 68%
    23:00 +14°C° 0 mm 6 m/S 747 mmHg 69%

    19 August, Sonntag

    Zeit Temperatur Niederschläge Wind Luftdruck Luftfeuchtigkeit
    00:00 +14°C° 0 mm 6 m/S 747 mmHg 71%
    01:00 +13°C° 0 mm 6 m/S 747 mmHg 72%
    02:00 +13°C° 0 mm 6 m/S 747 mmHg 74%
    03:00 +11°C° 0 mm 6 m/S 747 mmHg 75%
    04:00 +12°C° 0 mm 5 m/S 747 mmHg 76%
    05:00 +11°C° 0 mm 6 m/S 747 mmHg 76%
    06:00 +11°C° 0 mm 6 m/S 747 mmHg 75%
    07:00 +11°C° 0 mm 6 m/S 748 mmHg 75%
    08:00 +14°C° 0 mm 6 m/S 748 mmHg 70%
    09:00 +16°C° 0 mm 6 m/S 748 mmHg 64%
    10:00 +19°C° 0 mm 6 m/S 748 mmHg 59%
    11:00 +20°C° 0,1 mm 6 m/S 747 mmHg 55%
    12:00 +21°C° 0,1 mm 6 m/S 747 mmHg 52%
    13:00 +22°C° 0,1 mm 6 m/S 747 mmHg 49%
    14:00 +22°C° 0,2 mm 6 m/S 747 mmHg 48%
    15:00 +22°C° 0,2 mm 6 m/S 747 mmHg 48%
    16:00 +22°C° 0,2 mm 6 m/S 747 mmHg 47%
    17:00 +21°C° 0,1 mm 6 m/S 748 mmHg 51%
    18:00 +20°C° 0,1 mm 5 m/S 748 mmHg 55%
    19:00 +19°C° 0,1 mm 4 m/S 748 mmHg 59%
    20:00 +18°C° 0 mm 4 m/S 748 mmHg 63%
    21:00 +17°C° 0 mm 4 m/S 748 mmHg 67%
    22:00 +14°C° 0 mm 4 m/S 748 mmHg 72%
    23:00 +14°C° 0 mm 4 m/S 748 mmHg 74%

    20 August, Montag

    Zeit Temperatur Niederschläge Wind Luftdruck Luftfeuchtigkeit
    00:00 +13°C° 0 mm 4 m/S 748 mmHg 77%
    01:00 +12°C° 0 mm 3 m/S 749 mmHg 79%
    02:00 +12°C° 0 mm 3 m/S 749 mmHg 81%
    03:00 +11°C° 0 mm 3 m/S 749 mmHg 82%
    04:00 +11°C° 0 mm 3 m/S 749 mmHg 83%
    05:00 +11°C° 0 mm 4 m/S 749 mmHg 80%
    06:00 +11°C° 0 mm 4 m/S 749 mmHg 77%
    07:00 +12°C° 0 mm 4 m/S 749 mmHg 73%
    08:00 +14°C° 0 mm 5 m/S 749 mmHg 65%
    09:00 +15°C° 0 mm 5 m/S 749 mmHg 57%
    10:00 +17°C° 0 mm 6 m/S 749 mmHg 49%
    11:00 +19°C° 0 mm 6 m/S 749 mmHg 46%
    12:00 +20°C° 0 mm 6 m/S 749 mmHg 43%
    13:00 +21°C° 0 mm 6 m/S 749 mmHg 40%
    14:00 +21°C° 0 mm 6 m/S 748 mmHg 40%
    15:00 +21°C° 0 mm 6 m/S 748 mmHg 40%
    16:00 +21°C° 0 mm 6 m/S 748 mmHg 40%
    17:00 +20°C° 0 mm 5 m/S 748 mmHg 45%
    18:00 +19°C° 0 mm 4 m/S 749 mmHg 50%
    19:00 +19°C° 0 mm 3 m/S 749 mmHg 55%
    20:00 +17°C° 0 mm 3 m/S 749 mmHg 60%
    21:00 +16°C° 0 mm 3 m/S 749 mmHg 64%
    22:00 +14°C° 0 mm 3 m/S 749 mmHg 69%
    23:00 +14°C° 0 mm 2 m/S 749 mmHg 72%
    Mehr zeigen